Tracking 30417 objects as of 16-May-2025
HD Live streaming from Space Station
objects crossing your sky now

THORAD AGENA D DEB

Track THORAD AGENA D DEB now!
10-day predictions


NORAD ID: 4859
Int'l Code: 1970-025EP
Perigee: 1,004.4 km
Apogee: 1,076.7 km
Inclination: 99.9 °
Period: 105.8 minutes
Semi major axis: 7411 km
RCS: 0.0107 m2 (small)
Launch date: April 8, 1970
Source: United States (US)
Launch site: AIR FORCE WESTERN TEST RANGE (AFWTR)

Note: This is SATELLITE DEBRIS
Your satellite tracking list
Your tracking list is empty




NASA's NSSDC Master Catalog

Two Line Element Set (TLE):
1 04859U 70025EP  25132.72324350  .00000876  00000-0  12145-2 0  9995
2 04859  99.9476 219.7900 0048787 218.7070 294.2603 13.60617349713242
Source of the keplerian elements: AFSPC